Location: Austin
(30.3000°N, 97.7500°W)
Time: 02:34:06
(UTC-05:00)

Cosmos 1943 - Pass Details

Date: 01 October 2024
Orbit: 831 x 850 km, 71.0° (Epoch: 06 October)

Event Time Altitude Azimuth Distance (km) Brightness Sun altitude
Rises 19:36:08 0° 211° (SSW) 3,365 6.8 -5.3°
Reaches altitude 10° 19:38:37 10° 216° (SW) 2,436 6.2 -5.8°
Maximum altitude 19:44:02 52° 292° (WNW) 1,030 4.2 -7.0°
Drops below altitude 10° 19:49:33 10° 9° (N) 2,461 5.5 -8.2°
Sets 19:52:04 0° 14° (NNE) 3,401 6.2 -8.7°
